This is the latest recevied weather packets stored in our database for station/object KE5WTH-14. If no packets are shown the sender has not sent any weather packets the latest 10 day(s).
| Time | Temp. | Humidity | Pressure | Rain* | Wind** | Luminosity | Snow |
|---|---|---|---|---|---|---|---|
| 1778079134 | 12.22° C | 81% | 1013.3 hPa | 0 mm | - | 130 W/m² | - |
| 1778079074 | 12.22° C | 81% | 1013.4 hPa | 0 mm | - | 127 W/m² | - |
| 1778079013 | 12.22° C | 81% | 1013.8 hPa | 0 mm | - | 106 W/m² | - |
| 1778078952 | 12.22° C | 81% | 1014.2 hPa | 0 mm | - | 106 W/m² | - |
| 1778078918 | 12.22° C | 81% | 1014.5 hPa | 0 mm | - | 109 W/m² | - |
| 1778078895 | 12.22° C | 81% | 1014.7 hPa | 0 mm | - | 106 W/m² | - |
| 1778078865 | 12.22° C | 82% | 1014.8 hPa | 0 mm | - | 97 W/m² | - |
| 1778078836 | 12.22° C | 82% | 1014.9 hPa | 0 mm | - | 86 W/m² | - |
| 1778078652 | 12.22° C | 82% | 1015.1 hPa | 0 mm | - | 84 W/m² | - |
| 1778078591 | 12.22° C | 82% | 1015.1 hPa | 0 mm | - | 84 W/m² | - |
| 1778078531 | 12.22° C | 82% | 1015.2 hPa | 0 mm | - | 84 W/m² | - |
| 1778078471 | 12.22° C | 81% | 1015.2 hPa | 0 mm | - | 86 W/m² | - |
| 1778078414 | 12.22° C | 81% | 1015.2 hPa | 0 mm | - | 92 W/m² | - |
| 1778078352 | 12.22° C | 82% | 1015.1 hPa | 0 mm | - | 97 W/m² | - |
| 1778078291 | 12.22° C | 82% | 1015.1 hPa | 0 mm | - | 98 W/m² | - |
| 1778078232 | 12.22° C | 82% | 1015.1 hPa | 0 mm | - | 60 W/m² | - |
| 1778078171 | 12.22° C | 82% | 1015.2 hPa | 0 mm | - | 60 W/m² | - |
| 1778078112 | 12.22° C | 82% | 1015.2 hPa | 0 mm | - | 60 W/m² | - |
| 1778078052 | 12.22° C | 82% | 1015.3 hPa | 0 mm | - | 58 W/m² | - |
| 1778077992 | 12.22° C | 82% | 1015.3 hPa | 0 mm | - | 58 W/m² | - |
| 1778077926 | 12.22° C | 82% | 1015.1 hPa | 0 mm | - | 67 W/m² | - |
| 1778077866 | 12.22° C | 82% | 1014.9 hPa | 0 mm | - | 88 W/m² | - |
| 1778077808 | 12.22° C | 82% | 1014.9 hPa | 0 mm | - | 91 W/m² | - |
| 1778077745 | 12.22° C | 83% | 1014.9 hPa | 0 mm | - | 84 W/m² | - |
| 1778077686 | 12.22° C | 83% | 1014.8 hPa | 0 mm | - | 72 W/m² | - |
* Rain latest hour (hover to see other rain measurements)
** Current wind speed in m/s (hover to see current wind gust speed)